Weather History for Defiance, OH

Change the Weather History Date:

Saturday, June 15, 2013

  Actual Average Record
Temperature  
Mean Temperature 66 °F -  
Max Temperature 79 °F 82 °F 96 °F (1988)
Min Temperature 55 °F 59 °F 43 °F (1978)
Cooling Degree Days 2    
Growing Degree Days 16 (Base 50)    
Moisture  
Dew Point 58 °F    
Average Humidity 74    
Maximum Humidity 93    
Minimum Humidity 52    
Precipitation  
Precipitation 0.02 in - - ()
Sea Level Pressure  
Sea Level Pressure 30.04 in    
Wind  
Wind Speed 2 mph (SSW)    
Max Wind Speed 9 mph    
Max Gust Speed -    
Visibility 10 miles    
Events Rain    
Averages and records for this station are not official NWS values.
T = Trace of Precipitation, MM = Missing Value Source: NWS Daily Summary

Daily Weather History Graph

Daily Weather History Graph

Search for Another Location

Airport:

Trip Planner

Search our weather history database for the weather conditions in past years. The results will help you decide how hot, cold, wet, or windy it might be!

Date:

Astronomy

Jun. 15, 2013 Rise Set
Actual Time 6:03 AM EDT 9:12 PM EDT
Civil Twilight 5:29 AM EDT 9:46 PM EDT
Nautical Twilight 4:46 AM EDT 10:30 PM EDT
Astronomical Twilight 3:54 AM EDT 11:21 PM EDT
Moon 12:41 PM EDT (6/15) 12:44 AM EDT (6/15)
Length of Visible Light 16h 16m
Length of Day
15h 09m
Waxing Crescent, 39% of the Moon is Illuminated
Jun 15
Waxing Crescent
Jun 16
First Quarter
Jun 23
Full
Jun 30
Last Quarter
Jul 8
New

Hourly Weather History & Observations

Time (EDT) Temp. Dew Point Humidity Pressure Visibility Wind Dir Wind Speed Gust Speed Precip Events Conditions
12:53 AM 62.1 °F 57.0 °F 84% 30.04 in 10.0 mi Calm Calm - N/A   Clear
1:53 AM 62.1 °F 55.0 °F 78% 30.04 in 10.0 mi Calm Calm - N/A   Clear
2:53 AM 59.0 °F 55.0 °F 87% 30.07 in 10.0 mi Calm Calm - N/A   Clear
3:53 AM 57.0 °F 54.0 °F 89% 30.07 in 10.0 mi Calm Calm - N/A   Clear
4:53 AM 55.9 °F 54.0 °F 93% 30.06 in 10.0 mi Calm Calm - N/A   Clear
5:53 AM 57.0 °F 54.0 °F 89% 30.07 in 9.0 mi Calm Calm - N/A   Clear
6:53 AM 59.0 °F 55.0 °F 87% 30.09 in 8.0 mi Calm Calm - N/A   Clear
7:53 AM 63.0 °F 57.0 °F 81% 30.11 in 9.0 mi Calm Calm - N/A   Scattered Clouds
8:53 AM 66.0 °F 57.0 °F 73% 30.11 in 10.0 mi SW 6.9 mph - N/A   Mostly Cloudy
9:53 AM 69.1 °F 59.0 °F 70% 30.10 in 10.0 mi SSW 5.8 mph - N/A   Partly Cloudy
10:53 AM 73.9 °F 59.0 °F 59% 30.06 in 10.0 mi SSW 8.1 mph - N/A   Clear
11:53 AM 75.0 °F 57.9 °F 55% 30.03 in 10.0 mi South 6.9 mph - N/A   Partly Cloudy
12:53 PM 78.1 °F 59.0 °F 52% 30.03 in 10.0 mi SSW 9.2 mph - N/A   Clear
1:53 PM 77.0 °F 59.0 °F 54% 30.02 in 10.0 mi South 6.9 mph - N/A   Clear
2:53 PM 77.0 °F 59.0 °F 54% 30.04 in 10.0 mi SW 4.6 mph - N/A   Overcast
3:53 PM 72.0 °F 63.0 °F 73% 30.05 in 8.0 mi Variable 4.6 mph - 0.01 in Rain Light Rain
4:53 PM 70.0 °F 61.0 °F 73% 30.05 in 10.0 mi West 3.5 mph - 0.01 in Rain Light Rain
5:53 PM 71.1 °F 61.0 °F 70% 30.03 in 10.0 mi NNW 4.6 mph - 0.00 in   Overcast
6:53 PM 71.1 °F 61.0 °F 70% 30.01 in 10.0 mi Calm Calm - N/A   Overcast
7:53 PM 72.0 °F 62.1 °F 71% 29.97 in 10.0 mi South 5.8 mph - N/A   Scattered Clouds
8:53 PM 70.0 °F 61.0 °F 73% 29.95 in 10.0 mi SE 3.5 mph - N/A   Mostly Cloudy
9:53 PM 70.0 °F 61.0 °F 73% 29.97 in 10.0 mi Calm Calm - N/A   Overcast
10:53 PM 68.0 °F 61.0 °F 78% 29.96 in 10.0 mi South 3.5 mph - N/A   Clear
11:53 PM 66.9 °F 61.0 °F 81% 29.95 in 10.0 mi South 3.5 mph - N/A   Scattered Clouds